Year,Month,Day,Hour,Minute,Value (Times are PST for windspeed in km/hr)
2017,05,22,00,00,2.20
2017,05,22,00,01,2.80
2017,05,22,00,02,2.90
2017,05,22,00,03,2.60
2017,05,22,00,04,2.50
2017,05,22,00,05,2.50
2017,05,22,00,06,2.10
2017,05,22,00,07,1.20
2017,05,22,00,08,0.20
2017,05,22,00,09,0.00
2017,05,22,00,10,0.90
2017,05,22,00,11,2.80
2017,05,22,00,12,1.80
2017,05,22,00,13,1.20
2017,05,22,00,14,2.20
2017,05,22,00,15,2.70
2017,05,22,00,16,2.10
2017,05,22,00,17,1.50
2017,05,22,00,18,0.50
2017,05,22,00,19,0.90
2017,05,22,00,20,1.20
2017,05,22,00,21,2.20
2017,05,22,00,22,2.40
2017,05,22,00,23,2.20
2017,05,22,00,24,2.00
2017,05,22,00,25,2.80
2017,05,22,00,26,3.00
2017,05,22,00,27,2.50
2017,05,22,00,28,1.10
2017,05,22,00,29,0.20
2017,05,22,00,30,0.00
2017,05,22,00,31,0.70
2017,05,22,00,32,2.00
2017,05,22,00,33,1.10
2017,05,22,00,34,1.60
2017,05,22,00,35,2.10
2017,05,22,00,36,1.60
2017,05,22,00,37,1.10
2017,05,22,00,38,2.10
2017,05,22,00,39,2.20
2017,05,22,00,40,2.10
2017,05,22,00,41,2.20
2017,05,22,00,42,2.00
2017,05,22,00,43,2.10
2017,05,22,00,44,2.50
2017,05,22,00,45,2.40
2017,05,22,00,46,1.80
2017,05,22,00,47,2.20
2017,05,22,00,48,2.30
2017,05,22,00,49,1.70
2017,05,22,00,50,1.50
2017,05,22,00,51,1.30
2017,05,22,00,52,1.20
2017,05,22,00,53,1.40
2017,05,22,00,54,2.30
2017,05,22,00,55,1.70
2017,05,22,00,56,1.50
2017,05,22,00,57,2.50
2017,05,22,00,58,2.90
2017,05,22,00,59,2.10
2017,05,22,01,00,2.30
2017,05,22,01,01,1.80
2017,05,22,01,02,2.40
2017,05,22,01,03,1.90
2017,05,22,01,04,2.10
2017,05,22,01,05,2.40
2017,05,22,01,06,1.70
2017,05,22,01,07,1.90
2017,05,22,01,08,2.40
2017,05,22,01,09,1.90
2017,05,22,01,10,2.80
2017,05,22,01,11,2.50
2017,05,22,01,12,2.40
2017,05,22,01,13,2.20
2017,05,22,01,14,2.40
2017,05,22,01,15,1.80
2017,05,22,01,16,1.20
2017,05,22,01,17,0.30
2017,05,22,01,18,0.10
2017,05,22,01,19,0.10
2017,05,22,01,20,0.00
2017,05,22,01,21,0.10
2017,05,22,01,22,0.10
2017,05,22,01,23,0.80
2017,05,22,01,24,0.00
2017,05,22,01,25,0.10
2017,05,22,01,26,0.40
2017,05,22,01,27,1.10
2017,05,22,01,28,1.60
2017,05,22,01,29,2.10
2017,05,22,01,30,2.40
2017,05,22,01,31,1.70
2017,05,22,01,32,1.70
2017,05,22,01,33,1.30
2017,05,22,01,34,2.30
2017,05,22,01,35,1.90
2017,05,22,01,36,2.00
2017,05,22,01,37,1.50
2017,05,22,01,38,1.10
2017,05,22,01,39,0.90
2017,05,22,01,40,0.90
2017,05,22,01,41,0.60
2017,05,22,01,42,0.10
2017,05,22,01,43,0.10
2017,05,22,01,44,0.90
2017,05,22,01,45,2.20
2017,05,22,01,46,2.30
2017,05,22,01,47,1.70
2017,05,22,01,48,1.20
2017,05,22,01,49,0.20
2017,05,22,01,50,0.90
2017,05,22,01,51,0.00
2017,05,22,01,52,0.20
2017,05,22,01,53,2.90
2017,05,22,01,54,1.70
2017,05,22,01,55,0.40
2017,05,22,01,56,1.40
2017,05,22,01,57,1.70
2017,05,22,01,58,0.30
2017,05,22,01,59,0.30
2017,05,22,02,00,0.60
2017,05,22,02,01,1.00
2017,05,22,02,02,2.10
2017,05,22,02,03,2.50
2017,05,22,02,04,1.70
2017,05,22,02,05,2.20
2017,05,22,02,06,1.50
2017,05,22,02,07,2.00
2017,05,22,02,08,1.60
2017,05,22,02,09,2.00
2017,05,22,02,10,2.30
2017,05,22,02,11,2.50
2017,05,22,02,12,1.10
2017,05,22,02,13,1.30
2017,05,22,02,14,1.30
2017,05,22,02,15,1.10
2017,05,22,02,16,0.70
2017,05,22,02,17,0.20
2017,05,22,02,18,4.40
2017,05,22,02,19,3.90
2017,05,22,02,20,0.90
2017,05,22,02,21,2.10
2017,05,22,02,22,0.20
2017,05,22,02,23,0.00
2017,05,22,02,24,0.00
2017,05,22,02,25,0.80
2017,05,22,02,26,2.30
2017,05,22,02,27,2.50
2017,05,22,02,28,1.90
2017,05,22,02,29,2.00
2017,05,22,02,30,2.10
2017,05,22,02,31,1.50
2017,05,22,02,32,2.20
2017,05,22,02,33,1.70
2017,05,22,02,34,0.80
2017,05,22,02,35,1.20
2017,05,22,02,36,0.10
2017,05,22,02,37,0.30
2017,05,22,02,38,0.50
2017,05,22,02,39,1.40
2017,05,22,02,40,1.00
2017,05,22,02,41,1.40
2017,05,22,02,42,1.70
2017,05,22,02,43,1.00
2017,05,22,02,44,1.60
2017,05,22,02,45,0.00
2017,05,22,02,46,0.20
2017,05,22,02,47,0.20
2017,05,22,02,48,0.00
2017,05,22,02,49,0.00
2017,05,22,02,50,0.80
2017,05,22,02,51,0.70
2017,05,22,02,52,0.30
2017,05,22,02,53,0.60
2017,05,22,02,54,0.10
2017,05,22,02,55,0.50
2017,05,22,02,56,0.30
2017,05,22,02,57,0.40
2017,05,22,02,58,0.90
2017,05,22,02,59,1.30
2017,05,22,03,00,1.60
2017,05,22,03,01,2.20
2017,05,22,03,02,2.00
2017,05,22,03,03,1.70
2017,05,22,03,04,0.80
2017,05,22,03,05,0.50
2017,05,22,03,06,1.70
2017,05,22,03,07,2.40
2017,05,22,03,08,2.20
2017,05,22,03,09,0.80
2017,05,22,03,10,0.60
2017,05,22,03,11,1.10
2017,05,22,03,12,2.10
2017,05,22,03,13,1.90
2017,05,22,03,14,1.30
2017,05,22,03,15,1.60
2017,05,22,03,16,1.90
2017,05,22,03,17,1.00
2017,05,22,03,18,0.80
2017,05,22,03,19,1.20
2017,05,22,03,20,0.80
2017,05,22,03,21,0.30
2017,05,22,03,22,0.00
2017,05,22,03,23,0.00
2017,05,22,03,24,0.20
2017,05,22,03,25,0.40
2017,05,22,03,26,0.90
2017,05,22,03,27,0.90
2017,05,22,03,28,0.30
2017,05,22,03,29,1.30
2017,05,22,03,30,0.20
2017,05,22,03,31,0.50
2017,05,22,03,32,0.10
2017,05,22,03,33,1.90
2017,05,22,03,34,0.40
2017,05,22,03,35,2.10
2017,05,22,03,36,1.80
2017,05,22,03,37,0.30
2017,05,22,03,38,0.10
2017,05,22,03,39,0.20
2017,05,22,03,40,1.00
2017,05,22,03,41,0.70
2017,05,22,03,42,1.00
2017,05,22,03,43,0.30
2017,05,22,03,44,0.40
2017,05,22,03,45,0.80
2017,05,22,03,46,0.60
2017,05,22,03,47,0.30
2017,05,22,03,48,1.40
2017,05,22,03,49,0.40
2017,05,22,03,50,0.10
2017,05,22,03,51,0.20
2017,05,22,03,52,0.00
2017,05,22,03,53,0.50
2017,05,22,03,54,0.90
2017,05,22,03,55,1.00
2017,05,22,03,56,1.50
2017,05,22,03,57,0.80
2017,05,22,03,58,0.70
2017,05,22,03,59,0.00
2017,05,22,04,00,0.00
2017,05,22,04,01,0.20
2017,05,22,04,02,0.90
2017,05,22,04,03,0.20
2017,05,22,04,04,0.00
2017,05,22,04,05,0.10
2017,05,22,04,06,0.30
2017,05,22,04,07,0.30
2017,05,22,04,08,0.00
2017,05,22,04,09,0.60
2017,05,22,04,10,1.40
2017,05,22,04,11,1.00
2017,05,22,04,12,1.30
2017,05,22,04,13,1.60
2017,05,22,04,14,1.90
2017,05,22,04,15,1.40
2017,05,22,04,16,1.40
2017,05,22,04,17,0.80
2017,05,22,04,18,1.00
2017,05,22,04,19,0.80
2017,05,22,04,20,0.60
2017,05,22,04,21,0.90
2017,05,22,04,22,1.30
2017,05,22,04,23,0.90
2017,05,22,04,24,1.00
2017,05,22,04,25,1.70
2017,05,22,04,26,1.10
2017,05,22,04,27,0.80
2017,05,22,04,28,0.60
2017,05,22,04,29,0.50
2017,05,22,04,30,0.40
2017,05,22,04,31,0.10
2017,05,22,04,32,0.10
2017,05,22,04,33,0.10
2017,05,22,04,34,0.20
2017,05,22,04,35,0.10
2017,05,22,04,36,1.30
2017,05,22,04,37,1.60
2017,05,22,04,38,1.60
2017,05,22,04,39,1.90
2017,05,22,04,40,1.50
2017,05,22,04,41,0.10
2017,05,22,04,42,0.00
2017,05,22,04,43,0.00
2017,05,22,04,44,0.00
2017,05,22,04,45,0.00
2017,05,22,04,46,0.30
2017,05,22,04,47,0.80
2017,05,22,04,48,0.00
2017,05,22,04,49,0.60
2017,05,22,04,50,1.60
2017,05,22,04,51,1.30
2017,05,22,04,52,1.00
2017,05,22,04,53,2.10
2017,05,22,04,54,1.50
2017,05,22,04,55,2.20
2017,05,22,04,56,1.70
2017,05,22,04,57,1.80
2017,05,22,04,58,1.60
2017,05,22,04,59,1.00
2017,05,22,05,00,1.40
2017,05,22,05,01,0.70
2017,05,22,05,02,0.70
2017,05,22,05,03,0.50
2017,05,22,05,04,0.10
2017,05,22,05,05,0.00
2017,05,22,05,06,0.30
2017,05,22,05,07,0.00
2017,05,22,05,08,0.80
2017,05,22,05,09,1.60
2017,05,22,05,10,0.30
2017,05,22,05,11,0.70
2017,05,22,05,12,0.80
2017,05,22,05,13,1.60
2017,05,22,05,14,2.70
2017,05,22,05,15,2.60
2017,05,22,05,16,1.80
2017,05,22,05,17,0.90
2017,05,22,05,18,0.20
2017,05,22,05,19,1.00
2017,05,22,05,20,0.90
2017,05,22,05,21,1.20
2017,05,22,05,22,0.90
2017,05,22,05,23,1.70
2017,05,22,05,24,2.30
2017,05,22,05,25,2.10
2017,05,22,05,26,1.80
2017,05,22,05,27,1.50
2017,05,22,05,28,1.60
2017,05,22,05,29,1.90
2017,05,22,05,30,0.60
2017,05,22,05,31,0.80
2017,05,22,05,32,1.50
2017,05,22,05,33,1.60
2017,05,22,05,34,0.10
2017,05,22,05,35,0.00
2017,05,22,05,36,0.00
2017,05,22,05,37,0.00
2017,05,22,05,38,0.00
2017,05,22,05,39,0.00
2017,05,22,05,40,0.40
2017,05,22,05,41,0.60
2017,05,22,05,42,1.50
2017,05,22,05,43,0.90
2017,05,22,05,44,0.90
2017,05,22,05,45,0.60
2017,05,22,05,46,0.10
2017,05,22,05,47,0.10
2017,05,22,05,48,0.50
2017,05,22,05,49,0.40
2017,05,22,05,50,0.90
2017,05,22,05,51,0.70
2017,05,22,05,52,0.10
2017,05,22,05,53,0.30
2017,05,22,05,54,0.00
2017,05,22,05,55,0.00
2017,05,22,05,56,0.00
2017,05,22,05,57,0.00
2017,05,22,05,58,0.70
2017,05,22,05,59,0.70
2017,05,22,06,00,1.20
2017,05,22,06,01,1.70
2017,05,22,06,02,2.00
2017,05,22,06,03,2.20
2017,05,22,06,04,1.10
2017,05,22,06,05,0.60
2017,05,22,06,06,0.80
2017,05,22,06,07,1.40
2017,05,22,06,08,1.10
2017,05,22,06,09,1.50
2017,05,22,06,10,1.60
2017,05,22,06,11,1.20
2017,05,22,06,12,1.00
2017,05,22,06,13,0.40
2017,05,22,06,14,0.70
2017,05,22,06,15,0.80
2017,05,22,06,16,0.10
2017,05,22,06,17,0.00
2017,05,22,06,18,0.00
2017,05,22,06,19,0.00
2017,05,22,06,20,0.20
2017,05,22,06,21,0.00
2017,05,22,06,22,0.00
2017,05,22,06,23,0.50
2017,05,22,06,24,1.60
2017,05,22,06,25,1.20
2017,05,22,06,26,0.70
2017,05,22,06,27,0.00
2017,05,22,06,28,0.60
2017,05,22,06,29,0.60
2017,05,22,06,30,0.00
2017,05,22,06,31,0.20
2017,05,22,06,32,0.10
2017,05,22,06,33,0.10
2017,05,22,06,34,0.50
2017,05,22,06,35,0.50
2017,05,22,06,36,0.10
2017,05,22,06,37,0.00
2017,05,22,06,38,0.00
2017,05,22,06,39,0.00
2017,05,22,06,40,0.00
2017,05,22,06,41,0.00
2017,05,22,06,42,0.00
2017,05,22,06,43,0.00
2017,05,22,06,44,0.30
2017,05,22,06,45,0.10
2017,05,22,06,46,0.10
2017,05,22,06,47,0.70
2017,05,22,06,48,0.60
2017,05,22,06,49,1.20
2017,05,22,06,50,0.20
2017,05,22,06,51,0.20
2017,05,22,06,52,0.70
2017,05,22,06,53,0.00
2017,05,22,06,54,0.00
2017,05,22,06,55,0.80
2017,05,22,06,56,0.70
2017,05,22,06,57,0.80
2017,05,22,06,58,0.90
2017,05,22,06,59,0.90
2017,05,22,07,00,0.90
2017,05,22,07,01,0.80
2017,05,22,07,02,0.90
2017,05,22,07,03,1.20
2017,05,22,07,04,1.00
2017,05,22,07,05,0.70
2017,05,22,07,06,1.00
2017,05,22,07,07,0.40
2017,05,22,07,08,0.00
2017,05,22,07,09,0.30
2017,05,22,07,10,0.20
2017,05,22,07,11,0.10
2017,05,22,07,12,0.50
2017,05,22,07,13,0.60
2017,05,22,07,14,0.90
2017,05,22,07,15,1.50
2017,05,22,07,16,1.60
2017,05,22,07,17,1.50
2017,05,22,07,18,1.60
2017,05,22,07,19,1.70
2017,05,22,07,20,1.20
2017,05,22,07,21,1.10
2017,05,22,07,22,1.00
2017,05,22,07,23,0.70
2017,05,22,07,24,0.00
2017,05,22,07,25,0.00
2017,05,22,07,26,0.00
2017,05,22,07,27,0.00
2017,05,22,07,28,0.40
2017,05,22,07,29,1.00
2017,05,22,07,30,0.40
2017,05,22,07,31,0.20
2017,05,22,07,32,0.30
2017,05,22,07,33,0.10
2017,05,22,07,34,0.00
2017,05,22,07,35,0.00
2017,05,22,07,36,0.00
2017,05,22,07,37,0.00
2017,05,22,07,38,0.00
2017,05,22,07,39,0.10
2017,05,22,07,40,0.20
2017,05,22,07,41,2.20
2017,05,22,07,42,3.70
2017,05,22,07,43,3.40
2017,05,22,07,44,2.20
2017,05,22,07,45,0.80
2017,05,22,07,46,0.30
2017,05,22,07,47,0.20
2017,05,22,07,48,0.10
2017,05,22,07,49,0.90
2017,05,22,07,50,1.30
2017,05,22,07,51,0.50
2017,05,22,07,52,0.50
2017,05,22,07,53,1.50
2017,05,22,07,54,5.00
2017,05,22,07,55,5.00
2017,05,22,07,56,3.70
2017,05,22,07,57,2.10
2017,05,22,07,58,3.50
2017,05,22,07,59,3.60
2017,05,22,08,00,3.60
2017,05,22,08,01,2.80
2017,05,22,08,02,5.50
2017,05,22,08,03,3.80
2017,05,22,08,04,1.20
2017,05,22,08,05,1.20
2017,05,22,08,06,4.00
2017,05,22,08,07,5.00
2017,05,22,08,08,4.30
2017,05,22,08,09,3.10
2017,05,22,08,10,5.30
2017,05,22,08,11,3.80
2017,05,22,08,12,2.20
2017,05,22,08,13,3.20
2017,05,22,08,14,5.00
2017,05,22,08,15,5.70
2017,05,22,08,16,3.50
2017,05,22,08,17,2.00
2017,05,22,08,18,3.70
2017,05,22,08,19,7.20
2017,05,22,08,20,7.80
2017,05,22,08,21,5.50
2017,05,22,08,22,4.70
2017,05,22,08,23,3.90
2017,05,22,08,24,2.60
2017,05,22,08,25,2.30
2017,05,22,08,26,4.60
2017,05,22,08,27,4.10
2017,05,22,08,28,2.00
2017,05,22,08,29,1.40
2017,05,22,08,30,2.40
2017,05,22,08,31,1.50
2017,05,22,08,32,3.90
2017,05,22,08,33,5.30
2017,05,22,08,34,2.60
2017,05,22,08,35,0.30
2017,05,22,08,36,0.70
2017,05,22,08,37,1.90
2017,05,22,08,38,2.60
2017,05,22,08,39,1.90
2017,05,22,08,40,2.60
2017,05,22,08,41,0.60
2017,05,22,08,42,0.30
2017,05,22,08,43,1.60
2017,05,22,08,44,2.00
2017,05,22,08,45,2.20
2017,05,22,08,46,2.70
2017,05,22,08,47,2.90
2017,05,22,08,48,2.30
2017,05,22,08,49,2.80
2017,05,22,08,50,4.50
2017,05,22,08,51,3.80
2017,05,22,08,52,2.50
2017,05,22,08,53,1.00
2017,05,22,08,54,2.70
2017,05,22,08,55,5.80
2017,05,22,08,56,3.80
2017,05,22,08,57,2.50
2017,05,22,08,58,1.60
2017,05,22,08,59,1.10
2017,05,22,09,00,3.30
2017,05,22,09,01,2.10
2017,05,22,09,02,1.20
2017,05,22,09,03,0.50
2017,05,22,09,04,2.40
2017,05,22,09,05,3.60
2017,05,22,09,06,3.20
2017,05,22,09,07,2.10
2017,05,22,09,08,3.80
2017,05,22,09,09,5.50
2017,05,22,09,10,2.60
2017,05,22,09,11,2.40
2017,05,22,09,12,3.70
2017,05,22,09,13,3.90
2017,05,22,09,14,3.40
2017,05,22,09,15,4.70
2017,05,22,09,16,4.30
2017,05,22,09,17,6.40
2017,05,22,09,18,4.70
2017,05,22,09,19,5.30
2017,05,22,09,20,4.10
2017,05,22,09,21,3.30
2017,05,22,09,22,3.60
2017,05,22,09,23,2.80
2017,05,22,09,24,3.40
2017,05,22,09,25,0.80
2017,05,22,09,26,5.20
2017,05,22,09,27,5.10
2017,05,22,09,28,7.00
2017,05,22,09,29,4.30
2017,05,22,09,30,2.70
2017,05,22,09,31,4.00
2017,05,22,09,32,5.30
2017,05,22,09,33,6.60
2017,05,22,09,34,7.00
2017,05,22,09,35,5.40
2017,05,22,09,36,4.80
2017,05,22,09,37,8.40
2017,05,22,09,38,6.30
2017,05,22,09,39,8.00
2017,05,22,09,40,6.30
2017,05,22,09,41,6.30
2017,05,22,09,42,6.70
2017,05,22,09,43,7.50
2017,05,22,09,44,3.40
2017,05,22,09,45,6.70
2017,05,22,09,46,5.30
2017,05,22,09,47,7.20
2017,05,22,09,48,5.70
2017,05,22,09,49,6.80
2017,05,22,09,50,5.50
2017,05,22,09,51,7.60
2017,05,22,09,52,8.80
2017,05,22,09,53,5.50
2017,05,22,09,54,3.00
2017,05,22,09,55,1.80
2017,05,22,09,56,2.70
2017,05,22,09,57,0.60
2017,05,22,09,58,2.70
2017,05,22,09,59,2.80
2017,05,22,10,00,2.40
2017,05,22,10,01,3.10
2017,05,22,10,02,4.10
2017,05,22,10,03,4.50
2017,05,22,10,04,3.60
2017,05,22,10,05,3.70
2017,05,22,10,06,3.90
2017,05,22,10,07,4.60
2017,05,22,10,08,1.90
2017,05,22,10,09,7.00
2017,05,22,10,10,6.60
2017,05,22,10,11,4.00
2017,05,22,10,12,5.10
2017,05,22,10,13,4.40
2017,05,22,10,14,2.90
2017,05,22,10,15,3.90
2017,05,22,10,16,3.80
2017,05,22,10,17,2.90
2017,05,22,10,18,3.40
2017,05,22,10,19,8.30
2017,05,22,10,20,6.70
2017,05,22,10,21,8.20
2017,05,22,10,22,11.00
2017,05,22,10,23,4.90
2017,05,22,10,24,6.50
2017,05,22,10,25,5.90
2017,05,22,10,26,4.60
2017,05,22,10,27,3.80
2017,05,22,10,28,2.60
2017,05,22,10,29,5.50
2017,05,22,10,30,5.40
2017,05,22,10,31,3.70
2017,05,22,10,32,3.80
2017,05,22,10,33,6.90
2017,05,22,10,34,8.80
2017,05,22,10,35,4.90
2017,05,22,10,36,4.50
2017,05,22,10,37,3.30
2017,05,22,10,38,2.50
2017,05,22,10,39,3.10
2017,05,22,10,40,5.20
2017,05,22,10,41,4.50
2017,05,22,10,42,1.70
2017,05,22,10,43,0.70
2017,05,22,10,44,2.20
2017,05,22,10,45,4.70
2017,05,22,10,46,6.60
2017,05,22,10,47,6.90
2017,05,22,10,48,3.80
2017,05,22,10,49,1.30
2017,05,22,10,50,3.10
2017,05,22,10,51,3.40
2017,05,22,10,52,2.80
2017,05,22,10,53,3.00
2017,05,22,10,54,1.20
2017,05,22,10,55,4.00
2017,05,22,10,56,1.30
2017,05,22,10,57,1.50
2017,05,22,10,58,2.80
2017,05,22,10,59,2.50
2017,05,22,11,00,3.90
2017,05,22,11,01,3.40
2017,05,22,11,02,2.40
2017,05,22,11,03,3.20
2017,05,22,11,04,3.60
2017,05,22,11,05,3.70
2017,05,22,11,06,4.30
2017,05,22,11,07,3.10
2017,05,22,11,08,5.50
2017,05,22,11,09,3.20
2017,05,22,11,10,2.70
2017,05,22,11,11,2.80
2017,05,22,11,12,1.40
2017,05,22,11,13,2.40
2017,05,22,11,14,3.90
2017,05,22,11,15,5.10
2017,05,22,11,16,4.90
2017,05,22,11,17,1.90
2017,05,22,11,18,3.30
2017,05,22,11,19,3.30
2017,05,22,11,20,5.20
2017,05,22,11,21,5.80
2017,05,22,11,22,5.60
2017,05,22,11,23,5.70
2017,05,22,11,24,4.60
2017,05,22,11,25,7.10
2017,05,22,11,26,7.40
2017,05,22,11,27,7.00
2017,05,22,11,28,5.90
2017,05,22,11,29,3.50
2017,05,22,11,30,5.20
2017,05,22,11,31,6.50
2017,05,22,11,32,5.40
2017,05,22,11,33,7.00
2017,05,22,11,34,7.80
2017,05,22,11,35,5.70
2017,05,22,11,36,4.60
2017,05,22,11,37,7.30
2017,05,22,11,38,6.80
2017,05,22,11,39,7.90
2017,05,22,11,40,4.00
2017,05,22,11,41,3.00
2017,05,22,11,42,7.00
2017,05,22,11,43,6.40
2017,05,22,11,44,9.10
2017,05,22,11,45,5.60
2017,05,22,11,46,6.10
2017,05,22,11,47,5.70
2017,05,22,11,48,5.70
2017,05,22,11,49,5.00
2017,05,22,11,50,5.50
2017,05,22,11,51,3.80
2017,05,22,11,52,6.10
2017,05,22,11,53,5.00
2017,05,22,11,54,5.50
2017,05,22,11,55,5.10
2017,05,22,11,56,5.90
2017,05,22,11,57,4.20
2017,05,22,11,58,6.00
2017,05,22,11,59,5.20
2017,05,22,12,00,2.10
2017,05,22,12,01,5.70
2017,05,22,12,02,5.00
2017,05,22,12,03,4.20
2017,05,22,12,04,4.40
2017,05,22,12,05,6.60
2017,05,22,12,06,4.90
2017,05,22,12,07,1.00
2017,05,22,12,08,3.50
2017,05,22,12,09,6.30
2017,05,22,12,10,5.10
2017,05,22,12,11,4.50
2017,05,22,12,12,4.40
2017,05,22,12,13,5.50
2017,05,22,12,14,3.60
2017,05,22,12,15,5.10
2017,05,22,12,16,4.10
2017,05,22,12,17,5.70
2017,05,22,12,18,5.80
2017,05,22,12,19,4.70
2017,05,22,12,20,4.80
2017,05,22,12,21,5.50
2017,05,22,12,22,4.90
2017,05,22,12,23,6.20
2017,05,22,12,24,4.10
2017,05,22,12,25,3.30
2017,05,22,12,26,4.20
2017,05,22,12,27,4.90
2017,05,22,12,28,4.90
2017,05,22,12,29,5.80
2017,05,22,12,30,3.80
2017,05,22,12,31,4.40
2017,05,22,12,32,6.80
2017,05,22,12,33,4.90
2017,05,22,12,34,3.20
2017,05,22,12,35,7.00
2017,05,22,12,36,7.20
2017,05,22,12,37,5.60
2017,05,22,12,38,5.50
2017,05,22,12,39,3.80
2017,05,22,12,40,6.30
2017,05,22,12,41,4.50
2017,05,22,12,42,3.00
2017,05,22,12,43,6.20
2017,05,22,12,44,4.40
2017,05,22,12,45,2.50
2017,05,22,12,46,2.70
2017,05,22,12,47,4.40
2017,05,22,12,48,2.90
2017,05,22,12,49,3.90
2017,05,22,12,50,4.60
2017,05,22,12,51,6.60
2017,05,22,12,52,3.50
2017,05,22,12,53,2.60
2017,05,22,12,54,2.90
2017,05,22,12,55,3.00
2017,05,22,12,56,1.20
2017,05,22,12,57,2.20
2017,05,22,12,58,2.40
2017,05,22,12,59,2.40
2017,05,22,13,00,5.90
2017,05,22,13,01,3.20
2017,05,22,13,02,3.40
2017,05,22,13,03,3.50
2017,05,22,13,04,4.70
2017,05,22,13,05,4.00
2017,05,22,13,06,1.50
2017,05,22,13,07,3.50
2017,05,22,13,08,4.80
2017,05,22,13,09,3.70
2017,05,22,13,10,4.30
2017,05,22,13,11,4.50
2017,05,22,13,12,2.80
2017,05,22,13,13,4.70
2017,05,22,13,14,5.90
2017,05,22,13,15,6.70
2017,05,22,13,16,6.70
2017,05,22,13,17,7.30
2017,05,22,13,18,5.40
2017,05,22,13,19,6.30
2017,05,22,13,20,9.00
2017,05,22,13,21,9.20
2017,05,22,13,22,6.20
2017,05,22,13,23,6.30
2017,05,22,13,24,9.20
2017,05,22,13,25,6.40
2017,05,22,13,26,5.90
2017,05,22,13,27,6.60
2017,05,22,13,28,6.30
2017,05,22,13,29,6.40
2017,05,22,13,30,7.00
2017,05,22,13,31,6.00
2017,05,22,13,32,6.80
2017,05,22,13,33,7.30
2017,05,22,13,34,6.40
2017,05,22,13,35,6.80
2017,05,22,13,36,3.70
2017,05,22,13,37,4.70
2017,05,22,13,38,4.90
2017,05,22,13,39,5.40
2017,05,22,13,40,4.70
2017,05,22,13,41,4.20
2017,05,22,13,42,4.20
2017,05,22,13,43,3.40
2017,05,22,13,44,4.90
2017,05,22,13,45,2.50
2017,05,22,13,46,5.30
2017,05,22,13,47,5.00
2017,05,22,13,48,6.50
2017,05,22,13,49,7.20
2017,05,22,13,50,6.10
2017,05,22,13,51,5.30
2017,05,22,13,52,3.30
2017,05,22,13,53,3.90
2017,05,22,13,54,3.40
2017,05,22,13,55,1.70
2017,05,22,13,56,4.40
2017,05,22,13,57,2.60
2017,05,22,13,58,3.50
2017,05,22,13,59,3.10
2017,05,22,14,00,4.60
2017,05,22,14,01,2.90
2017,05,22,14,02,6.90
2017,05,22,14,03,8.00
2017,05,22,14,04,6.30
2017,05,22,14,05,4.90
2017,05,22,14,06,7.20
2017,05,22,14,07,5.30
2017,05,22,14,08,7.30
2017,05,22,14,09,7.60
2017,05,22,14,10,7.00
2017,05,22,14,11,8.60
2017,05,22,14,12,8.30
2017,05,22,14,13,6.40
2017,05,22,14,14,6.70
2017,05,22,14,15,5.40
2017,05,22,14,16,6.10
2017,05,22,14,17,5.30
2017,05,22,14,18,4.00
2017,05,22,14,19,2.40
2017,05,22,14,20,2.80
2017,05,22,14,21,3.40
2017,05,22,14,22,6.00
2017,05,22,14,23,4.80
2017,05,22,14,24,6.20
2017,05,22,14,25,5.30
2017,05,22,14,26,4.90
2017,05,22,14,27,6.30
2017,05,22,14,28,3.30
2017,05,22,14,29,4.60
2017,05,22,14,30,6.20
2017,05,22,14,31,7.10
2017,05,22,14,32,4.70
2017,05,22,14,33,4.20
2017,05,22,14,34,5.70
2017,05,22,14,35,5.00
2017,05,22,14,36,4.00
2017,05,22,14,37,4.50
2017,05,22,14,38,4.20
2017,05,22,14,39,4.60
2017,05,22,14,40,2.40
2017,05,22,14,41,5.60
2017,05,22,14,42,4.20
2017,05,22,14,43,6.10
2017,05,22,14,44,3.80
2017,05,22,14,45,5.00
2017,05,22,14,46,4.20
2017,05,22,14,47,3.40
2017,05,22,14,48,3.80
2017,05,22,14,49,3.90
2017,05,22,14,50,3.30
2017,05,22,14,51,4.30
2017,05,22,14,52,4.00
2017,05,22,14,53,2.30
2017,05,22,14,54,1.30
2017,05,22,14,55,4.10
2017,05,22,14,56,4.50
2017,05,22,14,57,2.60
2017,05,22,14,58,2.50
2017,05,22,14,59,3.30
2017,05,22,15,00,1.30
2017,05,22,15,01,0.30
2017,05,22,15,02,1.10
2017,05,22,15,03,0.30
2017,05,22,15,04,1.70
2017,05,22,15,05,3.70
2017,05,22,15,06,4.20
2017,05,22,15,07,3.40
2017,05,22,15,08,1.20
2017,05,22,15,09,4.80
2017,05,22,15,10,5.20
2017,05,22,15,11,4.30
2017,05,22,15,12,3.80
2017,05,22,15,13,5.60
2017,05,22,15,14,5.60
2017,05,22,15,15,4.00
2017,05,22,15,16,6.90
2017,05,22,15,17,6.70
2017,05,22,15,18,4.00
2017,05,22,15,19,4.90
2017,05,22,15,20,2.50
2017,05,22,15,21,2.30
2017,05,22,15,22,1.20
2017,05,22,15,23,3.60
2017,05,22,15,24,5.20
2017,05,22,15,25,5.90
2017,05,22,15,26,2.80
2017,05,22,15,27,3.50
2017,05,22,15,28,4.20
2017,05,22,15,29,5.10
2017,05,22,15,30,5.10
2017,05,22,15,31,3.40
2017,05,22,15,32,3.70
2017,05,22,15,33,4.40
2017,05,22,15,34,4.60
2017,05,22,15,35,3.50
2017,05,22,15,36,5.70
2017,05,22,15,37,3.70
2017,05,22,15,38,2.80
2017,05,22,15,39,4.80
2017,05,22,15,40,3.20
2017,05,22,15,41,2.50
2017,05,22,15,42,4.20
2017,05,22,15,43,3.70
2017,05,22,15,44,4.80
2017,05,22,15,45,3.00
2017,05,22,15,46,4.70
2017,05,22,15,47,3.40
2017,05,22,15,48,2.90
2017,05,22,15,49,2.90
2017,05,22,15,50,2.50
2017,05,22,15,51,3.30
2017,05,22,15,52,4.80
2017,05,22,15,53,4.50
2017,05,22,15,54,3.80
2017,05,22,15,55,4.50
2017,05,22,15,56,4.90
2017,05,22,15,57,4.50
2017,05,22,15,58,3.90
2017,05,22,15,59,4.40
2017,05,22,16,00,4.00
2017,05,22,16,01,2.90
2017,05,22,16,02,4.00
2017,05,22,16,03,4.20
2017,05,22,16,04,5.10
2017,05,22,16,05,3.40
2017,05,22,16,06,4.90
2017,05,22,16,07,5.20
2017,05,22,16,08,5.00
2017,05,22,16,09,4.90
2017,05,22,16,10,4.70
2017,05,22,16,11,3.90
2017,05,22,16,12,3.80
2017,05,22,16,13,5.60
2017,05,22,16,14,6.10
2017,05,22,16,15,4.80
2017,05,22,16,16,5.70
2017,05,22,16,17,5.30
2017,05,22,16,18,5.50
2017,05,22,16,19,6.10
2017,05,22,16,20,5.90
2017,05,22,16,21,4.00
2017,05,22,16,22,3.90
2017,05,22,16,23,3.90
2017,05,22,16,24,3.00
2017,05,22,16,25,4.20
2017,05,22,16,26,3.10
2017,05,22,16,27,3.20
2017,05,22,16,28,3.70
2017,05,22,16,29,2.10
2017,05,22,16,30,1.80
2017,05,22,16,31,1.10
2017,05,22,16,32,0.90
2017,05,22,16,33,3.20
2017,05,22,16,34,4.00
2017,05,22,16,35,3.90
2017,05,22,16,36,2.50
2017,05,22,16,37,2.20
2017,05,22,16,38,3.30
2017,05,22,16,39,1.60
2017,05,22,16,40,1.40
2017,05,22,16,41,2.70
2017,05,22,16,42,3.50
2017,05,22,16,43,2.90
2017,05,22,16,44,5.50
2017,05,22,16,45,4.50
2017,05,22,16,46,3.40
2017,05,22,16,47,3.80
2017,05,22,16,48,4.10
2017,05,22,16,49,4.40
2017,05,22,16,50,3.80
2017,05,22,16,51,4.90
2017,05,22,16,52,5.10
2017,05,22,16,53,5.20
2017,05,22,16,54,6.40
2017,05,22,16,55,5.60
2017,05,22,16,56,3.20
2017,05,22,16,57,3.50
2017,05,22,16,58,4.80
2017,05,22,16,59,5.20
2017,05,22,17,00,4.90
2017,05,22,17,01,5.00
2017,05,22,17,02,4.70
2017,05,22,17,03,5.50
2017,05,22,17,04,4.70
2017,05,22,17,05,3.50
2017,05,22,17,06,2.60
2017,05,22,17,07,1.70
2017,05,22,17,08,2.50
2017,05,22,17,09,2.50
2017,05,22,17,10,3.40
2017,05,22,17,11,3.40
2017,05,22,17,12,2.80
2017,05,22,17,13,4.00
2017,05,22,17,14,2.60
2017,05,22,17,15,4.00
2017,05,22,17,16,4.10
2017,05,22,17,17,2.90
2017,05,22,17,18,2.70
2017,05,22,17,19,3.40
2017,05,22,17,20,3.40
2017,05,22,17,21,2.80
2017,05,22,17,22,2.10
2017,05,22,17,23,1.80
2017,05,22,17,24,2.50
2017,05,22,17,25,3.20
2017,05,22,17,26,2.60
2017,05,22,17,27,2.00
2017,05,22,17,28,2.90
2017,05,22,17,29,2.90
2017,05,22,17,30,4.10
2017,05,22,17,31,3.50
2017,05,22,17,32,3.80
2017,05,22,17,33,4.70
2017,05,22,17,34,3.90
2017,05,22,17,35,4.30
2017,05,22,17,36,4.90
2017,05,22,17,37,4.70
2017,05,22,17,38,5.30
2017,05,22,17,39,5.20
2017,05,22,17,40,5.80
2017,05,22,17,41,4.80
2017,05,22,17,42,5.90
2017,05,22,17,43,6.00
2017,05,22,17,44,5.80
2017,05,22,17,45,5.00
2017,05,22,17,46,3.40
2017,05,22,17,47,3.80
2017,05,22,17,48,4.00
2017,05,22,17,49,3.90
2017,05,22,17,50,3.40
2017,05,22,17,51,4.60
2017,05,22,17,52,4.00
2017,05,22,17,53,3.70
2017,05,22,17,54,2.20
2017,05,22,17,55,2.30
2017,05,22,17,56,1.60
2017,05,22,17,57,1.60
2017,05,22,17,58,1.40
2017,05,22,17,59,1.30
2017,05,22,18,00,0.30
2017,05,22,18,01,1.40
2017,05,22,18,02,0.80
2017,05,22,18,03,1.50
2017,05,22,18,04,1.60
2017,05,22,18,05,1.00
2017,05,22,18,06,1.50